Year,Month,Day,Hour,Minute,Value (Times are PST for temperature in C)
2010,04,23,07,53,7.90
2010,04,23,07,54,7.90
2010,04,23,07,55,8.00
2010,04,23,07,56,8.00
2010,04,23,07,57,8.10
2010,04,23,07,58,8.10
2010,04,23,07,59,8.10
2010,04,23,08,00,8.20
2010,04,23,08,01,8.20
2010,04,23,08,02,8.20
2010,04,23,08,03,8.20
2010,04,23,08,04,8.20
2010,04,23,08,05,8.20
2010,04,23,08,06,8.30
2010,04,23,08,07,8.30
2010,04,23,08,08,8.30
2010,04,23,08,09,8.30
2010,04,23,08,10,8.30
2010,04,23,08,11,8.30
2010,04,23,08,12,8.30
2010,04,23,08,13,8.30
2010,04,23,08,14,8.30
2010,04,23,08,15,8.20
2010,04,23,08,16,8.20
2010,04,23,08,17,8.20
2010,04,23,08,18,8.20
2010,04,23,08,19,8.20
2010,04,23,08,20,8.20
2010,04,23,08,21,8.20
2010,04,23,08,22,8.20
2010,04,23,08,23,8.20
2010,04,23,08,24,8.20
2010,04,23,08,25,8.20
2010,04,23,08,26,8.20
2010,04,23,08,27,8.20
2010,04,23,08,28,8.20
2010,04,23,08,29,8.20
2010,04,23,08,30,8.20
2010,04,23,08,31,8.20
2010,04,23,08,32,8.20
2010,04,23,08,33,8.20
2010,04,23,08,34,8.20
2010,04,23,08,35,8.20
2010,04,23,08,36,8.20
2010,04,23,08,37,8.20
2010,04,23,08,38,8.20
2010,04,23,08,39,8.20
2010,04,23,08,40,8.20
2010,04,23,08,41,8.20
2010,04,23,08,42,8.20
2010,04,23,08,43,8.20
2010,04,23,08,44,8.20
2010,04,23,08,45,8.20
2010,04,23,08,46,8.20
2010,04,23,08,47,8.20
2010,04,23,08,48,8.20
2010,04,23,08,49,8.20
2010,04,23,08,50,8.20
2010,04,23,08,51,8.20
2010,04,23,08,52,8.20
2010,04,23,08,53,8.20
2010,04,23,08,54,8.20
2010,04,23,08,55,8.20
2010,04,23,08,56,8.20
2010,04,23,08,57,8.20
2010,04,23,08,58,8.20
2010,04,23,08,59,8.20
2010,04,23,09,00,8.20
2010,04,23,09,01,8.20
2010,04,23,09,02,8.20
2010,04,23,09,03,8.20
2010,04,23,09,04,8.20
2010,04,23,09,05,8.20
2010,04,23,09,06,8.20
2010,04,23,09,07,8.20
2010,04,23,09,08,8.10
2010,04,23,09,09,8.10
2010,04,23,09,10,8.00
2010,04,23,09,11,8.00
2010,04,23,09,12,8.00
2010,04,23,09,13,8.00
2010,04,23,09,14,8.00
2010,04,23,09,15,8.00
2010,04,23,09,16,8.00
2010,04,23,09,17,8.00
2010,04,23,09,18,8.00
2010,04,23,09,19,8.00
2010,04,23,09,20,8.00
2010,04,23,09,21,8.00
2010,04,23,09,22,8.00
2010,04,23,09,23,8.00
2010,04,23,09,24,8.10
2010,04,23,09,25,8.00
2010,04,23,09,26,8.00
2010,04,23,09,27,8.00
2010,04,23,09,28,8.00
2010,04,23,09,29,8.00
2010,04,23,09,30,8.00
2010,04,23,09,31,8.00
2010,04,23,09,32,7.90
2010,04,23,09,33,7.90
2010,04,23,09,34,8.00
2010,04,23,09,35,8.00
2010,04,23,09,36,8.00
2010,04,23,09,37,8.10
2010,04,23,09,38,8.20
2010,04,23,09,39,8.20
2010,04,23,09,40,8.20
2010,04,23,09,41,8.30
2010,04,23,09,42,8.30
2010,04,23,09,43,8.30
2010,04,23,09,44,8.40
2010,04,23,09,45,8.40
2010,04,23,09,46,8.40
2010,04,23,09,47,8.40
2010,04,23,09,48,8.50
2010,04,23,09,49,8.50
2010,04,23,09,50,8.50
2010,04,23,09,51,8.40
2010,04,23,09,52,8.40
2010,04,23,09,53,8.40
2010,04,23,09,54,8.40
2010,04,23,09,55,8.40
2010,04,23,09,56,8.30
2010,04,23,09,57,8.30
2010,04,23,09,58,8.30
2010,04,23,09,59,8.30
2010,04,23,10,00,8.20
2010,04,23,10,01,8.20
2010,04,23,10,02,8.20
2010,04,23,10,03,8.20
2010,04,23,10,04,8.20
2010,04,23,10,05,8.20
2010,04,23,10,06,8.20
2010,04,23,10,07,8.30
2010,04,23,10,08,8.30
2010,04,23,10,09,8.30
2010,04,23,10,10,8.30
2010,04,23,10,11,8.30
2010,04,23,10,12,8.40
2010,04,23,10,13,8.40
2010,04,23,10,14,8.40
2010,04,23,10,15,8.30
2010,04,23,10,16,8.30
2010,04,23,10,17,8.20
2010,04,23,10,18,8.20
2010,04,23,10,19,8.20
2010,04,23,10,20,8.20
2010,04,23,10,21,8.20
2010,04,23,10,22,8.20
2010,04,23,10,23,8.20
2010,04,23,10,24,8.20
2010,04,23,10,25,8.20
2010,04,23,10,26,8.20
2010,04,23,10,27,8.20
2010,04,23,10,28,8.20
2010,04,23,10,29,8.20
2010,04,23,10,30,8.20
2010,04,23,10,31,8.20
2010,04,23,10,32,8.20
2010,04,23,10,33,8.20
2010,04,23,10,34,8.20
2010,04,23,10,35,8.20
2010,04,23,10,36,8.30
2010,04,23,10,37,8.30
2010,04,23,10,38,8.20
2010,04,23,10,39,8.20
2010,04,23,10,40,8.20
2010,04,23,10,41,8.20
2010,04,23,10,42,8.20
2010,04,23,10,43,8.20
2010,04,23,10,44,8.20
2010,04,23,10,45,8.20
2010,04,23,10,46,8.30
2010,04,23,10,47,8.30
2010,04,23,10,48,8.30
2010,04,23,10,49,8.30
2010,04,23,10,50,8.30
2010,04,23,10,51,8.40
2010,04,23,10,52,8.40
2010,04,23,10,53,8.40
2010,04,23,10,54,8.50
2010,04,23,10,55,8.50
2010,04,23,10,56,8.60
2010,04,23,10,57,8.70
2010,04,23,10,58,8.70
2010,04,23,10,59,8.70
2010,04,23,11,00,8.80
2010,04,23,11,01,8.80
2010,04,23,11,02,8.80
2010,04,23,11,03,8.80
2010,04,23,11,04,8.80
2010,04,23,11,05,8.80
2010,04,23,11,06,8.90
2010,04,23,11,07,8.90
2010,04,23,11,08,9.00
2010,04,23,11,09,9.00
2010,04,23,11,10,9.10
2010,04,23,11,11,9.10
2010,04,23,11,12,9.20
2010,04,23,11,13,9.20
2010,04,23,11,14,9.20
2010,04,23,11,15,9.20
2010,04,23,11,16,9.20
2010,04,23,11,17,9.20
2010,04,23,11,18,9.20
2010,04,23,11,19,9.20
2010,04,23,11,20,9.20
2010,04,23,11,21,9.20
2010,04,23,11,22,9.20
2010,04,23,11,23,9.30
2010,04,23,11,24,9.30
2010,04,23,11,25,9.30
2010,04,23,11,26,9.30
2010,04,23,11,27,9.30
2010,04,23,11,28,9.30
2010,04,23,11,29,9.40
2010,04,23,11,30,9.40
2010,04,23,11,31,9.30
2010,04,23,11,32,9.20
2010,04,23,11,33,9.20
2010,04,23,11,34,9.20
2010,04,23,11,35,9.20
2010,04,23,11,36,9.30
2010,04,23,11,37,9.30
2010,04,23,11,38,9.30
2010,04,23,11,39,9.40
2010,04,23,11,40,9.40
2010,04,23,11,41,9.40
2010,04,23,11,42,9.40
2010,04,23,11,43,9.40
2010,04,23,11,44,9.50
2010,04,23,11,45,9.50
2010,04,23,11,46,9.60
2010,04,23,11,47,9.70
2010,04,23,11,48,9.80
2010,04,23,11,49,9.90
2010,04,23,11,50,9.90
2010,04,23,11,51,10.00
2010,04,23,11,52,10.10
2010,04,23,11,53,10.10
2010,04,23,11,54,10.20
2010,04,23,11,55,10.20
2010,04,23,11,56,10.20
2010,04,23,11,57,10.30
2010,04,23,11,58,10.40
2010,04,23,11,59,10.40
2010,04,23,12,00,10.60
2010,04,23,12,01,10.60
2010,04,23,12,02,10.60
2010,04,23,12,03,10.60
2010,04,23,12,04,10.60
2010,04,23,12,05,10.60
2010,04,23,12,06,10.60
2010,04,23,12,07,10.60
2010,04,23,12,08,10.60
2010,04,23,12,09,10.40
2010,04,23,12,10,10.40
2010,04,23,12,11,10.40
2010,04,23,12,12,10.40
2010,04,23,12,13,10.30
2010,04,23,12,14,10.20
2010,04,23,12,15,10.20
2010,04,23,12,16,10.20
2010,04,23,12,17,10.30
2010,04,23,12,18,10.30
2010,04,23,12,19,10.30
2010,04,23,12,20,10.30
2010,04,23,12,21,10.40
2010,04,23,12,22,10.40
2010,04,23,12,23,10.60
2010,04,23,12,24,10.60
2010,04,23,12,25,10.60
2010,04,23,12,26,10.60
2010,04,23,12,27,10.70
2010,04,23,12,28,10.80
2010,04,23,12,29,10.90
2010,04,23,12,30,11.00
2010,04,23,12,31,11.10
2010,04,23,12,32,11.10
2010,04,23,12,33,11.10
2010,04,23,12,34,11.10
2010,04,23,12,35,11.10
2010,04,23,12,36,11.10
2010,04,23,12,37,11.10
2010,04,23,12,38,11.10
2010,04,23,12,39,11.10
2010,04,23,12,40,11.20
2010,04,23,12,41,11.20
2010,04,23,12,42,11.30
2010,04,23,12,43,11.40
2010,04,23,12,44,11.40
2010,04,23,12,45,11.40
2010,04,23,12,46,11.40
2010,04,23,12,47,11.40
2010,04,23,12,48,11.40
2010,04,23,12,49,11.30
2010,04,23,12,50,11.20
2010,04,23,12,51,11.10
2010,04,23,12,52,11.10
2010,04,23,12,53,11.10
2010,04,23,12,54,11.10
2010,04,23,12,55,11.10
2010,04,23,12,56,11.10
2010,04,23,12,57,11.10
2010,04,23,12,58,11.10
2010,04,23,12,59,11.10
2010,04,23,13,00,11.20
2010,04,23,13,01,11.30
2010,04,23,13,02,11.30
2010,04,23,13,03,11.20
2010,04,23,13,04,11.10
2010,04,23,13,05,11.10
2010,04,23,13,06,11.00
2010,04,23,13,07,10.90
2010,04,23,13,08,10.90
2010,04,23,13,09,10.90
2010,04,23,13,10,10.90
2010,04,23,13,11,11.10
2010,04,23,13,12,11.10
2010,04,23,13,13,11.10
2010,04,23,13,14,11.10
2010,04,23,13,15,11.10
2010,04,23,13,16,11.10
2010,04,23,13,17,11.20
2010,04,23,13,18,11.30
2010,04,23,13,19,11.40
2010,04,23,13,20,11.50
2010,04,23,13,21,11.50
2010,04,23,13,22,11.40
2010,04,23,13,23,11.40
2010,04,23,13,24,11.40
2010,04,23,13,25,11.30
2010,04,23,13,26,11.30
2010,04,23,13,27,11.30
2010,04,23,13,28,11.30
2010,04,23,13,29,11.30
2010,04,23,13,30,11.30
2010,04,23,13,31,11.20
2010,04,23,13,32,11.20
2010,04,23,13,33,11.10
2010,04,23,13,34,11.00
2010,04,23,13,35,10.90
2010,04,23,13,36,10.90
2010,04,23,13,37,11.10
2010,04,23,13,38,11.10
2010,04,23,13,39,11.20
2010,04,23,13,40,11.30
2010,04,23,13,41,11.30
2010,04,23,13,42,11.40
2010,04,23,13,43,11.40
2010,04,23,13,44,11.30
2010,04,23,13,45,11.30
2010,04,23,13,46,11.20
2010,04,23,13,47,11.20
2010,04,23,13,48,11.20
2010,04,23,13,49,11.20
2010,04,23,13,50,11.10
2010,04,23,13,51,11.10
2010,04,23,13,52,11.00
2010,04,23,13,53,10.90
2010,04,23,13,54,10.90
2010,04,23,13,55,10.90
2010,04,23,13,56,10.90
2010,04,23,13,57,10.90
2010,04,23,13,58,10.90
2010,04,23,13,59,11.00
2010,04,23,14,00,11.10
2010,04,23,14,01,11.10
2010,04,23,14,02,11.20
2010,04,23,14,03,11.20
2010,04,23,14,04,11.20
2010,04,23,14,05,11.20
2010,04,23,14,06,11.20
2010,04,23,14,07,11.20
2010,04,23,14,08,11.20
2010,04,23,14,09,11.20
2010,04,23,14,10,11.20
2010,04,23,14,11,11.20
2010,04,23,14,12,11.10
2010,04,23,14,13,10.90
2010,04,23,14,14,10.80
2010,04,23,14,15,10.70
2010,04,23,14,16,10.60
2010,04,23,14,17,10.60
2010,04,23,14,18,10.60
2010,04,23,14,19,10.60
2010,04,23,14,20,10.70
2010,04,23,14,21,10.70
2010,04,23,14,22,10.80
2010,04,23,14,23,10.80
2010,04,23,14,24,10.80
2010,04,23,14,25,10.80
2010,04,23,14,26,10.70
2010,04,23,14,27,10.70
2010,04,23,14,28,10.60
2010,04,23,14,29,10.50
2010,04,23,14,30,10.40
2010,04,23,14,31,10.40
2010,04,23,14,32,10.30
2010,04,23,14,33,10.20
2010,04,23,14,34,10.20
2010,04,23,14,35,10.20
2010,04,23,14,36,10.10
2010,04,23,14,37,10.10
2010,04,23,14,38,10.10
2010,04,23,14,39,10.10
2010,04,23,14,40,10.10
2010,04,23,14,41,10.10
2010,04,23,14,42,10.10
2010,04,23,14,43,10.10
2010,04,23,14,44,10.10
2010,04,23,14,45,10.10
2010,04,23,14,46,10.10
2010,04,23,14,47,10.10
2010,04,23,14,48,10.20
2010,04,23,14,49,10.30
2010,04,23,14,50,10.40
2010,04,23,14,51,10.50
2010,04,23,14,52,10.60
2010,04,23,14,53,10.60
2010,04,23,14,54,10.50
2010,04,23,14,55,10.60
2010,04,23,14,56,10.60
2010,04,23,14,57,10.60
2010,04,23,14,58,10.60
2010,04,23,14,59,10.60
2010,04,23,15,00,10.60
2010,04,23,15,01,10.70
2010,04,23,15,02,10.70
2010,04,23,15,03,10.80
2010,04,23,15,04,10.90
2010,04,23,15,05,10.90
2010,04,23,15,06,10.90
2010,04,23,15,07,11.00
2010,04,23,15,08,11.10
2010,04,23,15,09,11.00
2010,04,23,15,10,10.90
2010,04,23,15,11,10.90
2010,04,23,15,12,10.90
2010,04,23,15,13,10.90
2010,04,23,15,14,10.90
2010,04,23,15,15,10.80
2010,04,23,15,16,10.80
2010,04,23,15,17,10.80
2010,04,23,15,18,10.70
2010,04,23,15,19,10.70
2010,04,23,15,20,10.70
2010,04,23,15,21,10.80
2010,04,23,15,22,10.80
2010,04,23,15,23,10.80
2010,04,23,15,24,10.90
2010,04,23,15,25,10.90
2010,04,23,15,26,10.90
2010,04,23,15,27,10.90
2010,04,23,15,28,10.90
2010,04,23,15,29,10.90
2010,04,23,15,30,10.90
2010,04,23,15,31,10.90
2010,04,23,15,32,10.90
2010,04,23,15,33,10.90
2010,04,23,15,34,10.80
2010,04,23,15,35,10.80
2010,04,23,15,36,10.70
2010,04,23,15,37,10.60
2010,04,23,15,38,10.60
2010,04,23,15,39,10.60
2010,04,23,15,40,10.60
2010,04,23,15,41,10.60
2010,04,23,15,42,10.50
2010,04,23,15,43,10.40
2010,04,23,15,44,10.40
2010,04,23,15,45,10.40
2010,04,23,15,46,10.40
2010,04,23,15,47,10.30
2010,04,23,15,48,10.30
2010,04,23,15,49,10.20
2010,04,23,15,50,10.20
2010,04,23,15,51,10.20
2010,04,23,15,52,10.10
2010,04,23,15,53,10.10
2010,04,23,15,54,10.10
2010,04,23,15,55,10.10
2010,04,23,15,56,10.10
2010,04,23,15,57,10.10
2010,04,23,15,58,10.10
2010,04,23,15,59,10.00
2010,04,23,16,00,9.90
2010,04,23,16,01,9.90
2010,04,23,16,02,9.90
2010,04,23,16,03,9.80
2010,04,23,16,04,9.80
2010,04,23,16,05,9.70
2010,04,23,16,06,9.70
2010,04,23,16,07,9.60
2010,04,23,16,08,9.50
2010,04,23,16,09,9.50
2010,04,23,16,10,9.40
2010,04,23,16,11,9.30
2010,04,23,16,12,9.30
2010,04,23,16,13,9.20
2010,04,23,16,14,9.20
2010,04,23,16,15,9.20
2010,04,23,16,16,9.20
2010,04,23,16,17,9.20
2010,04,23,16,18,9.20
2010,04,23,16,19,9.20
2010,04,23,16,20,9.20
2010,04,23,16,21,9.20
2010,04,23,16,22,9.20
2010,04,23,16,23,9.20
2010,04,23,16,24,9.10
2010,04,23,16,25,9.10
2010,04,23,16,26,9.10
2010,04,23,16,27,9.00
2010,04,23,16,28,8.90
2010,04,23,16,29,8.80
2010,04,23,16,30,8.80
2010,04,23,16,31,8.70
2010,04,23,16,32,8.70
2010,04,23,16,33,8.70
2010,04,23,16,34,8.70
2010,04,23,16,35,8.70
2010,04,23,16,36,8.70
2010,04,23,16,37,8.70
2010,04,23,16,38,8.70
2010,04,23,16,39,8.60
2010,04,23,16,40,8.50
2010,04,23,16,41,8.50
2010,04,23,16,42,8.50
2010,04,23,16,43,8.60
2010,04,23,16,44,8.60
2010,04,23,16,45,8.70
2010,04,23,16,46,8.60
2010,04,23,16,47,8.60
2010,04,23,16,48,8.60
2010,04,23,16,49,8.60
2010,04,23,16,50,8.60
2010,04,23,16,51,8.60
2010,04,23,16,52,8.60
2010,04,23,16,53,8.60
2010,04,23,16,54,8.60
2010,04,23,16,55,8.60
2010,04,23,16,56,8.60
2010,04,23,16,57,8.60
2010,04,23,16,58,8.70
2010,04,23,16,59,8.70
2010,04,23,17,00,8.70
2010,04,23,17,01,8.70
2010,04,23,17,02,8.70
2010,04,23,17,03,8.70
2010,04,23,17,04,8.70
2010,04,23,17,05,8.70
2010,04,23,17,06,8.70
2010,04,23,17,07,8.70
2010,04,23,17,08,8.80
2010,04,23,17,09,8.90
2010,04,23,17,10,8.90
2010,04,23,17,11,8.90
2010,04,23,17,12,8.90
2010,04,23,17,13,8.90
2010,04,23,17,14,9.00
2010,04,23,17,15,9.00
2010,04,23,17,16,9.00
2010,04,23,17,17,9.00
2010,04,23,17,18,9.00
2010,04,23,17,19,9.10
2010,04,23,17,20,9.10
2010,04,23,17,21,9.00
2010,04,23,17,22,9.00
2010,04,23,17,23,9.00
2010,04,23,17,24,9.00
2010,04,23,17,25,9.00
2010,04,23,17,26,9.00
2010,04,23,17,27,9.00
2010,04,23,17,28,9.00
2010,04,23,17,29,9.00
2010,04,23,17,30,9.00
2010,04,23,17,31,9.00
2010,04,23,17,32,9.00
2010,04,23,17,33,8.90
2010,04,23,17,34,8.90
2010,04,23,17,35,8.90
2010,04,23,17,36,8.90
2010,04,23,17,37,8.90
2010,04,23,17,38,8.90
2010,04,23,17,39,8.90
2010,04,23,17,40,8.90
2010,04,23,17,41,8.90
2010,04,23,17,42,8.90
2010,04,23,17,43,8.90
2010,04,23,17,44,8.90
2010,04,23,17,45,9.00
2010,04,23,17,46,9.00
2010,04,23,17,47,9.00
2010,04,23,17,48,9.00
2010,04,23,17,49,9.00
2010,04,23,17,50,9.00
2010,04,23,17,51,9.10
2010,04,23,17,52,9.10
2010,04,23,17,53,9.10
2010,04,23,17,54,9.10
2010,04,23,17,55,9.10
2010,04,23,17,56,9.10
2010,04,23,17,57,9.10
2010,04,23,17,58,9.10
2010,04,23,17,59,9.10
2010,04,23,18,00,9.10
2010,04,23,18,01,9.10
2010,04,23,18,02,9.10
2010,04,23,18,03,9.00
2010,04,23,18,04,9.00
2010,04,23,18,05,8.90
2010,04,23,18,06,8.90
2010,04,23,18,07,9.00
2010,04,23,18,08,9.00
2010,04,23,18,09,8.90
2010,04,23,18,10,8.90
2010,04,23,18,11,8.90
2010,04,23,18,12,8.90
2010,04,23,18,13,8.90
2010,04,23,18,14,8.90
2010,04,23,18,15,8.90
2010,04,23,18,16,8.90
2010,04,23,18,17,8.90
2010,04,23,18,18,8.80
2010,04,23,18,19,8.80
2010,04,23,18,20,8.80
2010,04,23,18,21,8.70
2010,04,23,18,22,8.70
2010,04,23,18,23,8.70
2010,04,23,18,24,8.70
2010,04,23,18,25,8.70
2010,04,23,18,26,8.70
2010,04,23,18,27,8.70
2010,04,23,18,28,8.70
2010,04,23,18,29,8.70
2010,04,23,18,30,8.70
2010,04,23,18,31,8.70
2010,04,23,18,32,8.70
2010,04,23,18,33,8.70
2010,04,23,18,34,8.70
2010,04,23,18,35,8.70
2010,04,23,18,36,8.70
2010,04,23,18,37,8.70
2010,04,23,18,38,8.70
2010,04,23,18,39,8.60
2010,04,23,18,40,8.60
2010,04,23,18,41,8.50
2010,04,23,18,42,8.50
2010,04,23,18,43,8.50
2010,04,23,18,44,8.50
2010,04,23,18,45,8.50
2010,04,23,18,46,8.40
2010,04,23,18,47,8.40
2010,04,23,18,48,8.40
2010,04,23,18,49,8.40
2010,04,23,18,50,8.30
2010,04,23,18,51,8.30
2010,04,23,18,52,8.30
2010,04,23,18,53,8.20
2010,04,23,18,54,8.20
2010,04,23,18,55,8.20
2010,04,23,18,56,8.20
2010,04,23,18,57,8.20
2010,04,23,18,58,8.20
2010,04,23,18,59,8.20
2010,04,23,19,00,8.20
2010,04,23,19,01,8.20
2010,04,23,19,02,8.20
2010,04,23,19,03,8.20
